[[{"header":{"parameterUnit":"m.s-1","parameterCategory":1,"la1":30.2991,"la2":30.254,"lo1":-89.0895,"lo2":-89.0444,"dy":0.0017,"dx":0.0017,"nx":28,"ny":28,"refTime":"2025-08-30T09:00:00:Z","depth":0,"parameterNumber":2,"parameterNumberName":"U-component_of_WINDS"},"data":[0,0,0,0,0,0,0,0,0,0,0,0,0,0,0,0,0,0,0,0,0,0,0,0,0,0,0,0,0,0,0,0,0,0,0,0,0,0,0,0,0,0,0,0,0,0,0,0,0,0,0,0,0,0,0,0,0,0,0.7515,0.7515,0,0.753,0.753,0.753,0.7416,0.7412,0.7409,0.7406,0.7431,0.7434,0.7438,0,0,0,0,0,0,0,0,0,0,0,0,0,0.7394,0.7397,0.7515,0.7515,0.7515,0.753,0.753,0.753,0.7416,0.7412,0.7408,0.7405,0.7429,0.7434,0.7438,0,0,0,0,0,0,0,0,0,0,0,0,0,0.7432,0.7398,0.7514,0.746,0.7455,0.753,0.753,0.753,0.7417,0.7412,0.7407,0.7403,0.7428,0.7433,0.7439,0.7569,0,0,0.7455,0.7458,0,0,0,0,0,0,0,0,0.743,0.7436,0.7468,0.7464,0.7458,0.7465,0.7496,0.7544,0.7418,0.7432,0.7406,0.74,0.7447,0.745,0.7464,0.757,0.7572,0.7456,0.7459,0.7462,0.7463,0,0,0,0,0,0,0,0.7427,0.7435,0.7521,0.7468,0.7463,0.7437,0.7437,0.7505,0.7467,0.743,0.7422,0.7425,0.7443,0.7459,0.7464,0.7572,0.7456,0.7461,0.7464,0.7466,0.7788,0.7793,0,0,0,0,0,0,0.7431,0.7434,0.752,0.7521,0.7432,0.7443,0.7443,0.7468,0.7465,0.746,0.7429,0.7419,0.7452,0.7458,0.7464,0.7619,0.7462,0.7467,0.747,0.7782,0.7789,0.7794,0,0,0,0,0,0,0.7429,0.744,0.752,0.7475,0.7483,0.745,0.748,0.7471,0.7487,0.7464,0.7458,0.7452,0.7448,0.7457,0.7544,0.7618,0.7469,0.7474,0.7776,0.7784,0.7792,0.7929,0,0,0,0,0,0,0.7426,0.744,0.7488,0.7477,0.7486,0.7597,0.7484,0.7475,0.7495,0.7483,0.7484,0.7479,0.7445,0.7536,0.7549,0.7623,0.7478,0.777,0.778,0.7789,0.7918,0.794,0.796,0,0,0,0,0,0.7422,0.7527,0.7491,0.7502,0.7545,0.7602,0.7607,0.7563,0.7502,0.7551,0.7536,0.7479,0.7607,0.7546,0.756,0.7637,0.7765,0.7777,0.7788,0.7908,0.7936,0.7959,0,0,0,0,0,0,0.7552,0.7525,0.7484,0.7589,0.7598,0.7582,0.7643,0.7594,0.7623,0.7611,0.7558,0.7559,0.7656,0.7654,0.7587,0.7763,0.7675,0.7691,0.7762,0.7788,0.7809,0.781,0.7483,0,0,0,0,0,0.7591,0.7637,0.7612,0.7707,0.7713,0.7678,0.7701,0.7666,0.7674,0.7679,0.767,0.7684,0.7726,0.7756,0.7794,0.7915,0.7915,0.7974,0.7995,0.8013,0.8028,0.8094,0.8121,0.7833,0.7833,0.7833,0,0,0.7676,0.7667,0.77,0.7733,0.7736,0.7788,0.7682,0.7741,0.778,0.7689,0.7771,0.7765,0.7776,0.7881,0.7926,0.7882,0.8107,0.8028,0.8042,0.8048,0.8109,0.8137,0.8161,0.7841,0.784,0.7839,0,0,0.7858,0.7854,0.7933,0.7937,0.7942,0.7917,0.7936,0.7927,0.7919,0.7999,0.7932,0.7978,0.8052,0.8063,0.8079,0.8261,0.8212,0.8275,0.8388,0.8453,0.8476,0.8496,0.8565,0.8589,0.8289,0.829,0.829,0,0.7964,0.8036,0.7981,0.8044,0.8062,0.7977,0.8059,0.8066,0.8085,0.81,0.8048,0.814,0.8141,0.8249,0.8293,0.8307,0.833,0.8278,0.8476,0.8496,0.8514,0.8579,0.8604,0.8298,0.8297,0.8296,0.8295,0,0.8168,0.8219,0.8282,0.8299,0.8323,0.8395,0.8354,0.8385,0.8346,0.8328,0.8411,0.8409,0.8446,0.8467,0.8432,0.8571,0.8543,0.8485,0.8396,0.855,0.8611,0.8635,0.8309,0.8306,0.8304,0.8302,0,0,0.8436,0.8418,0.8443,0.845,0.8448,0.8488,0.8556,0.8588,0.8618,0.8632,0.8691,0.8754,0.87,0.8718,0.8682,0.8738,0.8887,0.8673,0.8672,0.8717,0.9043,0.9091,0.912,0.8851,0.8855,0.8859,0.9044,0,0.8616,0.873,0.8682,0.8802,0.885,0.8769,0.8829,0.8835,0.8819,0.8859,0.8841,0.8888,0.881,0.8821,0.8872,0.8858,0.8953,0.8843,0.891,0.8913,0.8914,0.9151,0.9202,0.9376,0.9066,0.907,0.9073,0,0.8842,0.8863,0.8988,0.8976,0.8995,0.9049,0.9076,0.9113,0.9119,0.9103,0.9122,0.9073,0.9142,0.9049,0.9146,0.9073,0.9096,0.9093,0.9098,0.9107,0.9006,0.9171,0.943,0.9459,0.9109,0.9106,0.9104,0,0.9031,0.9089,0.9172,0.918,0.9167,0.9208,0.9206,0.9206,0.9229,0.9252,0.9267,0.9298,0.9318,0.9344,0.9307,0.9242,0.941,0.9314,0.9402,0.9404,0.9446,0.9445,0.9718,0.9453,0.9453,0.9452,0.9452,0,0.924,0.932,0.9256,0.9308,0.9396,0.9339,0.9428,0.9417,0.9418,0.9468,0.9398,0.9447,0.9392,0.9436,0.9407,0.9493,0.9501,0.9493,0.9485,0.9502,0.9504,0.9521,0.9509,0.9459,0.9458,0.9456,0.9455,0,0.9468,0.9427,0.9512,0.9492,0.9489,0.9555,0.9539,0.9588,0.9564,0.9628,0.964,0.9604,0.9653,0.9616,0.9664,0.9644,0.9759,0.9732,0.9757,0.9751,0.9844,0.9838,1.0141,1.018,0.9886,0.9889,0.9891,0,0.9606,0.9666,0.9651,0.9677,0.9678,0.9722,0.9744,0.969,0.9716,0.9726,0.9774,0.9815,0.9846,0.9927,0.9908,0.9945,0.9921,1.0025,0.9927,0.9942,0.9928,0.9927,0.9935,1.0047,1.005,1.0053,1.0055,0,0.9858,0.9834,0.9867,0.9893,0.992,0.9939,0.9952,0.9979,0.9923,0.9957,1.0003,1.0027,1.0074,1.0118,1.0147,1.0147,1.0095,1.0085,1.0109,1.0129,1.0143,1.0141,0.9817,1.008,1.0078,1.0076,1.0075,1.0074,1.0048,1.0098,1.0095,1.0134,1.0137,1.0151,1.0195,1.0176,1.0213,1.0245,1.0211,1.0269,1.0273,1.0306,1.0312,1.0358,1.0316,1.0349,1.0358,1.0369,1.0384,1.0131,1.0363,1.0362,1.0362,1.0361,1.036,0,1.03,1.0293,1.0328,1.0348,1.0379,1.032,1.0332,1.0364,1.0414,1.0421,1.0451,1.0506,1.0547,1.0529,1.0566,1.0607,1.0584,1.0619,1.0618,1.062,1.0417,1.0395,1.0637,1.0637,1.0637,1.0637,1.0637,1.0637,1.0435,1.0516,1.0492,1.0575,1.0568,1.0622,1.0634,1.0647,1.0652,1.0715,1.0748,1.0734,1.0732,1.0767,1.0804,1.0797,1.0817,1.0862,1.0848,1.0661,1.0633,1.0608,1.0587,1.0865,1.0865,1.1047,1.1048,1.105]},{"header":{"parameterUnit":"m.s-1","parameterCategory":1,"la1":30.2991,"la2":30.254,"lo1":-89.0895,"lo2":-89.0444,"dy":0.0017,"dx":0.0017,"nx":28,"ny":28,"refTime":"2025-08-30T09:00:00:Z","depth":0,"parameterNumber":3,"parameterNumberName":"V-component_of_WINDS"},"data":[0,0,0,0,0,0,0,0,0,0,0,0,0,0,0,0,0,0,0,0,0,0,0,0,0,0,0,0,0,0,0,0,0,0,0,0,0,0,0,0,0,0,0,0,0,0,0,0,0,0,0,0,0,0,0,0,0,0,-0.4508,-0.4508,0,-0.4568,-0.4569,-0.457,-0.4656,-0.4658,-0.4659,-0.4661,-0.4722,-0.4722,-0.4722,0,0,0,0,0,0,0,0,0,0,0,0,0,-0.4466,-0.4466,-0.4508,-0.4508,-0.4509,-0.4568,-0.4569,-0.457,-0.4656,-0.4658,-0.466,-0.4661,-0.4722,-0.4722,-0.4722,0,0,0,0,0,0,0,0,0,0,0,0,0,-0.4501,-0.4466,-0.4508,-0.4559,-0.4565,-0.4568,-0.4569,-0.457,-0.4656,-0.4658,-0.466,-0.4662,-0.4722,-0.4722,-0.4723,-0.468,0,0,-0.4724,-0.4724,0,0,0,0,0,0,0,0,-0.4499,-0.4503,-0.4551,-0.4556,-0.4562,-0.4607,-0.4577,-0.4607,-0.4655,-0.4621,-0.4661,-0.4663,-0.4682,-0.4686,-0.4692,-0.4683,-0.4686,-0.4724,-0.4724,-0.4724,-0.4724,0,0,0,0,0,0,0,-0.4496,-0.45,-0.4532,-0.4552,-0.4558,-0.4579,-0.4587,-0.4583,-0.4638,-0.4624,-0.4631,-0.4637,-0.4685,-0.4692,-0.4694,-0.4687,-0.4724,-0.4724,-0.4724,-0.4724,-0.4646,-0.4644,0,0,0,0,0,0,-0.4486,-0.4498,-0.453,-0.4534,-0.4535,-0.4578,-0.4587,-0.459,-0.4638,-0.4648,-0.4635,-0.464,-0.469,-0.4694,-0.4697,-0.465,-0.4724,-0.4724,-0.4725,-0.4648,-0.4645,-0.4643,0,0,0,0,0,0,-0.4485,-0.4488,-0.4527,-0.4518,-0.4524,-0.4577,-0.458,-0.459,-0.4597,-0.4646,-0.4657,-0.4631,-0.4692,-0.4696,-0.4684,-0.4653,-0.4725,-0.4725,-0.4651,-0.4647,-0.4644,-0.4555,0,0,0,0,0,0,-0.4484,-0.4488,-0.4472,-0.4517,-0.4524,-0.4513,-0.4578,-0.459,-0.4597,-0.4605,-0.4646,-0.4654,-0.4694,-0.4683,-0.4684,-0.4655,-0.4725,-0.4654,-0.4649,-0.4645,-0.4561,-0.4549,-0.4538,0,0,0,0,0,-0.4482,-0.4444,-0.447,-0.4474,-0.4506,-0.4511,-0.4515,-0.4562,-0.4594,-0.4579,-0.4611,-0.4653,-0.4657,-0.4681,-0.4683,-0.4653,-0.4656,-0.465,-0.4645,-0.4566,-0.4551,-0.4539,0,0,0,0,0,0,-0.4394,-0.4451,-0.4481,-0.4456,-0.4478,-0.4525,-0.4507,-0.4545,-0.4557,-0.4564,-0.4622,-0.463,-0.461,-0.4631,-0.4657,-0.4615,-0.4663,-0.4658,-0.4601,-0.4588,-0.4577,-0.4571,-0.4726,0,0,0,0,0,-0.4372,-0.4371,-0.4421,-0.4395,-0.4404,-0.4454,-0.4458,-0.4492,-0.4517,-0.4526,-0.4557,-0.4579,-0.4586,-0.4588,-0.4597,-0.4565,-0.4575,-0.4546,-0.4535,-0.4526,-0.452,-0.4504,-0.4491,-0.4626,-0.4626,-0.4626,0,0,-0.4325,-0.4357,-0.4353,-0.4378,-0.4399,-0.4397,-0.4461,-0.4456,-0.4455,-0.4525,-0.4515,-0.4539,-0.4568,-0.4545,-0.4537,-0.4562,-0.4485,-0.4519,-0.4511,-0.451,-0.4497,-0.4484,-0.4473,-0.4622,-0.4623,-0.4623,0,0,-0.424,-0.4264,-0.4244,-0.4264,-0.4295,-0.4329,-0.4324,-0.4366,-0.4385,-0.4375,-0.4428,-0.4428,-0.4438,-0.4456,-0.4466,-0.4389,-0.4428,-0.439,-0.4331,-0.4315,-0.4304,-0.4295,-0.4266,-0.4255,-0.4385,-0.4385,-0.4385,0,-0.4178,-0.4177,-0.4229,-0.4221,-0.423,-0.4295,-0.4276,-0.4293,-0.4324,-0.4329,-0.4358,-0.4371,-0.4395,-0.4377,-0.4358,-0.4365,-0.4361,-0.4385,-0.4302,-0.4293,-0.4285,-0.4258,-0.4247,-0.438,-0.438,-0.4381,-0.4381,0,-0.41,-0.4098,-0.4079,-0.4108,-0.4116,-0.4102,-0.4152,-0.4153,-0.4187,-0.4217,-0.4207,-0.4239,-0.4254,-0.4253,-0.4286,-0.424,-0.4254,-0.4291,-0.434,-0.4267,-0.4242,-0.4232,-0.4373,-0.4375,-0.4376,-0.4377,0,0,-0.3957,-0.4017,-0.4009,-0.4023,-0.4063,-0.4063,-0.4052,-0.4068,-0.4067,-0.4088,-0.408,-0.4087,-0.4122,-0.4134,-0.417,-0.4156,-0.4091,-0.4195,-0.4196,-0.4172,-0.4041,-0.401,-0.3998,-0.4118,-0.4116,-0.4115,-0.4037,0,-0.3878,-0.3863,-0.391,-0.3882,-0.3881,-0.3944,-0.3935,-0.3958,-0.3986,-0.399,-0.4022,-0.4025,-0.4072,-0.4079,-0.4069,-0.4101,-0.4065,-0.4108,-0.411,-0.4109,-0.4098,-0.3985,-0.3953,-0.3878,-0.4028,-0.4027,-0.4026,0,-0.3783,-0.3798,-0.377,-0.3812,-0.3814,-0.3804,-0.3822,-0.3825,-0.3853,-0.3875,-0.3889,-0.3931,-0.3923,-0.3972,-0.3962,-0.399,-0.3994,-0.401,-0.4009,-0.4008,-0.4061,-0.398,-0.3856,-0.3843,-0.4011,-0.4013,-0.4014,0,-0.3679,-0.3694,-0.3679,-0.369,-0.3738,-0.373,-0.375,-0.378,-0.3787,-0.3803,-0.3808,-0.3823,-0.3831,-0.3842,-0.3887,-0.3918,-0.3871,-0.3924,-0.3888,-0.3886,-0.3872,-0.3872,-0.3745,-0.3879,-0.3879,-0.3879,-0.388,0,-0.3584,-0.3564,-0.3633,-0.3624,-0.3604,-0.3659,-0.3637,-0.3663,-0.369,-0.3686,-0.3743,-0.3738,-0.3799,-0.3802,-0.3837,-0.3822,-0.3826,-0.3843,-0.3852,-0.3836,-0.3834,-0.3838,-0.3843,-0.3877,-0.3877,-0.3878,-0.3878,0,-0.3464,-0.351,-0.3497,-0.3545,-0.3557,-0.3539,-0.358,-0.3573,-0.3606,-0.3601,-0.3603,-0.3655,-0.366,-0.3707,-0.3724,-0.3748,-0.3719,-0.374,-0.3709,-0.3715,-0.3675,-0.3677,-0.3544,-0.3529,-0.3674,-0.3673,-0.3672,0,-0.3399,-0.3385,-0.3431,-0.3433,-0.3451,-0.3453,-0.346,-0.3515,-0.352,-0.3551,-0.354,-0.3551,-0.3562,-0.3568,-0.3607,-0.3619,-0.3639,-0.3592,-0.3641,-0.3626,-0.3636,-0.3635,-0.3633,-0.358,-0.3578,-0.3577,-0.3576,0,-0.3278,-0.3302,-0.331,-0.3326,-0.3333,-0.3348,-0.3367,-0.3365,-0.3425,-0.3428,-0.3435,-0.3443,-0.3461,-0.347,-0.3489,-0.351,-0.3552,-0.356,-0.3552,-0.3534,-0.3516,-0.3524,-0.3677,-0.3562,-0.3564,-0.3564,-0.3565,-0.3566,-0.3182,-0.3172,-0.3203,-0.3211,-0.3231,-0.3247,-0.3243,-0.3276,-0.3282,-0.33,-0.3333,-0.3334,-0.3364,-0.3394,-0.3412,-0.3414,-0.3439,-0.3427,-0.3424,-0.342,-0.3411,-0.3518,-0.3418,-0.3418,-0.3419,-0.3419,-0.3419,0,-0.3062,-0.3086,-0.3092,-0.3116,-0.3122,-0.3163,-0.3186,-0.3188,-0.3188,-0.3213,-0.3222,-0.323,-0.324,-0.328,-0.3293,-0.3287,-0.3307,-0.3289,-0.3288,-0.3292,-0.3389,-0.3393,-0.3273,-0.3273,-0.3273,-0.3273,-0.3273,-0.3273,-0.3,-0.2985,-0.3013,-0.3009,-0.3033,-0.3035,-0.3045,-0.306,-0.3079,-0.3085,-0.3093,-0.312,-0.315,-0.3167,-0.3177,-0.3189,-0.319,-0.3165,-0.3183,-0.3272,-0.3286,-0.3299,-0.3303,-0.3166,-0.3166,-0.3086,-0.3085,-0.3085]}]]